Home   Weather   Mafeteng   Past weeks

Flag for Lesotho Past Weather in Mafeteng, Lesotho — Yesterday and Last 2 Weeks

Now
45 °F

Quite cool.


Feels Like: 43 °F
Forecast: 45 / 67 °F
Wind: 3 mph from Northeast

Location: Bloemfontein Airport

Current Time: Apr 26, 2017 at 4:42:16 am

Latest Report: Apr 26, 2017 at 4:00 am


Visibility: N/A

Pressure: 30.27 "Hg (24.72 "Hg at 1662m altitude)

Humidity: 76%

Dew Point: 37 °F

Location of MafetengLocation

Past Weather in Mafeteng — Graph

°F

Mafeteng Temperature Yesterday

Maximum temperature yesterday: 75 °F (at 1:00 pm)
Minimum temperature yesterday: 37 °F (at 5:00 am)
Average temperature yesterday: 56 °F

High & Low Weather Summary for the Past Weeks

 TemperatureHumidityPressure
High77 °F (Apr 12, 4:00 pm)100% (Apr 11, 3:00 am)30.33 "Hg (Apr 11, 3:00 am)
Low32 °F (Apr 20, 7:00 am)8% (Apr 20, 4:00 pm)29.98 "Hg (Apr 13, 3:00 am)
Average57 °F60%30.20 "Hg
* Reported Apr 11 3:00 am — Apr 26 3:00 am, Mafeteng, Weather by CustomWeather, © 2017

Note: Actual official high and low records may vary slightly from our data, if they occured in-between our weather recording intervals... More about our weather records

Advertising

Mafeteng Weather History for the Previous 24 Hours

Scroll right to see more
 ConditionsComfort  
Time TempWeatherWind HumidityBarometerVisibility
3:00 am
Wed, Apr 26
45 °FQuite cool.3 mph71%30.27 "HgN/A
2:00 am46 °FCool.3 mph66%30.27 "HgN/A
1:24 am48 °FCool.2 mph62%30.27 "HgN/A
1:00 am45 °FQuite cool.1 mph71%30.27 "HgN/A
12:00 am46 °FCool.3 mph66%30.27 "HgN/A
11:00 pm
Tue, Apr 25
48 °FCool.1 mph62%30.27 "HgN/A
10:00 pm52 °FCool.2 mph54%30.27 "HgN/A
9:00 pm52 °FCool.2 mph54%30.27 "HgN/A
8:00 pm59 °FClear.8 mph36%30.27 "Hg10 mi
7:00 pm61 °FClear.6 mph34%30.24 "Hg10 mi
6:00 pm68 °FClear.6 mph24%30.21 "Hg10 mi
5:00 pm75 °FSunny.5 mph16%30.21 "Hg10 mi
4:00 pm75 °FPassing clouds.6 mph21%30.21 "HgN/A
3:00 pm75 °FSunny.5 mph21%30.21 "Hg10 mi
1:00 pm75 °FSunny.5 mph24%30.24 "Hg10 mi
12:00 pm73 °FPassing clouds.5 mph29%30.27 "HgN/A
11:00 am70 °FSunny.2 mph35%30.33 "Hg10 mi
10:00 am63 °FPassing clouds.5 mph56%30.30 "HgN/A
9:00 am57 °FSunny.6 mph67%30.30 "Hg10 mi
8:00 am52 °FSunny.No wind67%30.33 "Hg10 mi
7:39 am46 °FSunny.2 mph82%30.30 "Hg10 mi
7:00 am37 °FSunny.No wind93%30.27 "Hg10 mi
6:00 am39 °FClear.3 mph87%30.27 "Hg10 mi
5:00 am37 °FClear.1 mph87%30.30 "Hg10 mi
4:00 am43 °FQuite cool.No wind76%30.27 "HgN/A
Weather by CustomWeather, © 2017

See weather overviewHow to use our weather pages